Regional Weather Roundup
Issued by NWS Memphis, TN

Home | Current Version | Previous Version | Text Only | Print | Product List | Glossary On
Versions: 1 2 3 4 5 6 7 8 9 10 11 12 13 14 15 16 17 18 19 20 21 22 23 24 25 26 27 28 29 30 31 32 33 34 35 36 37 38 39 40 41 42 43 44 45 46 47 48 49 50
000
ASUS44 KMEG 171410
RWRMEG
MEMPHIS CWA HOURLY WEATHER ROUNDUP
NATIONAL WEATHER SERVICE MEMPHIS TN
900 AM CDT THU AUG 17 2017

...WEST TENNESSEE...

CITY           SKY/WX    TMP DP  RH WIND       PRES   REMARKS
MEMPHIS INTL   CLOUDY    80  75  84 SW10      30.02R
NWS MEMPHIS      N/A     79 N/A N/A MISG        N/A
JACKSON        CLOUDY    78  77  96 SW9       30.02R
COVINGTON      PTSUNNY   77  77 100 SW7       30.01S FOG
LEXINGTON      CLOUDY    77  75  94 SW8       30.03R
SELMER         CLOUDY    77  75  94 SW8G15    30.04R
SAVANNAH       CLOUDY    77  75  94 SW13      30.04R
DYERSBURG      CLOUDY    78  75  90 SW8       30.00R
UNION CITY     CLOUDY    77  75  94 S8G17     29.97R
PARIS          CLOUDY    77  75  94 SW12G17   29.99R FOG


...EASTERN ARKANSAS...

CITY           SKY/WX    TMP DP  RH WIND       PRES   REMARKS
JONESBORO      LGT RAIN  77  77 100 S5        29.98R
WEST MEMPHIS   CLOUDY    79  76  90 SW8       30.00S
BATESVILLE     CLOUDY    72  70  94 W3        29.97F
NEWPORT        LGT RAIN  71  70  96 N5        29.96F
WALNUT RIDGE   CLOUDY    72  68  88 SW10G18   29.99R THUNDER
BLYTHEVILLE    CLOUDY    78  77  96 SW16G24   29.99R
SEARCY           N/A    N/A N/A N/A MISG        N/A
PINE BLUFF     CLOUDY    80  76  87 S10       30.00S
MONTICELLO     CLOUDY    82  76  81 SW8       30.02S


...NORTH MISSISSIPPI...

CITY           SKY/WX    TMP DP  RH WIND       PRES   REMARKS
TUPELO         CLOUDY    78  72  81 S7        30.06R
OXFORD           N/A    N/A N/A N/A MISG        N/A
BATESVILLE     CLOUDY    80  74  84 SW9       30.05R
OLIVE BRANCH   CLOUDY   N/A N/A N/A SW5       30.02R
TUNICA           N/A     79  75  89 SW14      30.03R
CLARKSDALE       N/A     82  82 100 S8        30.03R HX  97
GREENWOOD      CLOUDY    78  75  90 SW8       30.06R
COLUMBUS       MOSUNNY   80  79  96 SW5       30.08R
STARKVILLE     PTSUNNY   79  73  83 SW3       30.09R
GOLDEN TRIANGL MOSUNNY   81  70  69 W7        30.04R


...SOUTHEAST MISSOURI...

CITY           SKY/WX    TMP DP  RH WIND       PRES   REMARKS
KENNETT        CLOUDY    79  75  89 SW13      29.95F FOG
MALDEN         CLOUDY    81  72  74 SW6       29.96S
WEST PLAINS    CLOUDY    69  68  96 SW6       30.02R
POPLAR BLUFF   LGT RAIN  74  72  93 SW7       29.96R
CAPE GIRARDEAU CLOUDY    75  72  90 SW6       29.94R


...NORTHWEST ALABAMA...

CITY           SKY/WX    TMP DP  RH WIND       PRES   REMARKS
MUSCLE SHOALS  CLOUDY    79  74  84 SW10      30.07S


...MIDDLE TENNESSEE...

CITY           SKY/WX    TMP DP  RH WIND       PRES   REMARKS
NASHVILLE      MOSUNNY   82  73  74 S6        30.03F
CLARKSVILLE    PTSUNNY   79  73  82 SW9       29.99S
COLUMBIA       CLOUDY    79  79 100 SW12      30.03S


...WESTERN KENTUCKY...

CITY           SKY/WX    TMP DP  RH WIND       PRES   REMARKS
PADUCAH        CLOUDY    80  73  79 SW10      29.94R
FORT CAMPBELL  PTSUNNY   80  74  84 SW12      29.98F


...CENTRAL ARKANSAS...

CITY           SKY/WX    TMP DP  RH WIND       PRES   REMARKS
LITTLE ROCK    CLOUDY    75  74  96 E3        29.99S


SKY/WX REPORTED AS FAIR MEANS FEW OR NO CLOUDS BELOW
12 THOUSAND FEET.





USA.gov is the U.S. government's official web portal to all federal, state and local government web resources and services.